owner,sensor,date,latitude,longitude,vertical_datum,mass_concentration_of_oxygen_in_sea_water,qcFlag 
DISL,ioos:station:DISL:DISL:1,2010-02-01T00:00:00Z,30.2513,-88.0778,6.153,11.43,1111122 
DISL,ioos:station:DISL:DISL:1,2010-02-01T00:30:00Z,30.2513,-88.0778,6.218,11.33,1111122 
DISL,ioos:station:DISL:DISL:1,2010-02-01T01:00:00Z,30.2513,-88.0778,6.257,11.11,1111122 
DISL,ioos:station:DISL:DISL:1,2010-02-01T01:30:00Z,30.2513,-88.0778,6.386,11.47,1111122 
DISL,ioos:station:DISL:DISL:1,2010-02-01T02:00:00Z,30.2513,-88.0778,6.458,11.32,1111122 
DISL,ioos:station:DISL:DISL:1,2010-02-01T02:30:00Z,30.2513,-88.0778,6.496,11.27,1111122 
DISL,ioos:station:DISL:DISL:1,2010-02-01T03:00:00Z,30.2513,-88.0778,6.566,11.25,1111122 
DISL,ioos:station:DISL:DISL:1,2010-02-01T03:30:00Z,30.2513,-88.0778,6.614,11.32,1111122 
DISL,ioos:station:DISL:DISL:1,2010-02-01T04:00:00Z,30.2513,-88.0778,6.531,11.25,1111122 
DISL,ioos:station:DISL:DISL:1,2010-02-01T04:30:00Z,30.2513,-88.0778,6.586,10.96,1111122 
DISL,ioos:station:DISL:DISL:1,2010-02-01T05:00:00Z,30.2513,-88.0778,6.556,10.86,1111122 
DISL,ioos:station:DISL:DISL:1,2010-02-01T05:30:00Z,30.2513,-88.0778,6.564,10.83,1111122 
DISL,ioos:station:DISL:DISL:1,2010-02-01T06:00:00Z,30.2513,-88.0778,6.556,10.76,1111122 
DISL,ioos:station:DISL:DISL:1,2010-02-01T06:30:00Z,30.2513,-88.0778,6.546,10.55,1111122 
DISL,ioos:station:DISL:DISL:1,2010-02-01T07:00:00Z,30.2513,-88.0778,6.573,10.49,1111122 
DISL,ioos:station:DISL:DISL:1,2010-02-01T07:30:00Z,30.2513,-88.0778,6.587,10.45,1111122 
DISL,ioos:station:DISL:DISL:1,2010-02-01T08:00:00Z,30.2513,-88.0778,6.401,10.5,1111122 
DISL,ioos:station:DISL:DISL:1,2010-02-01T08:30:00Z,30.2513,-88.0778,6.397,10.46,1111122 
DISL,ioos:station:DISL:DISL:1,2010-02-01T09:00:00Z,30.2513,-88.0778,6.69,10.46,1111122 
DISL,ioos:station:DISL:DISL:1,2010-02-01T09:30:00Z,30.2513,-88.0778,6.32,10.43,1111122 
DISL,ioos:station:DISL:DISL:1,2010-02-01T10:00:00Z,30.2513,-88.0778,6.246,10.42,1111122 
DISL,ioos:station:DISL:DISL:1,2010-02-01T10:30:00Z,30.2513,-88.0778,6.128,10.41,1111122 
DISL,ioos:station:DISL:DISL:1,2010-02-01T11:00:00Z,30.2513,-88.0778,6.065,10.4,1111122 
DISL,ioos:station:DISL:DISL:1,2010-02-01T11:30:00Z,30.2513,-88.0778,6.002,10.39,1111122 
DISL,ioos:station:DISL:DISL:1,2010-02-01T12:00:00Z,30.2513,-88.0778,5.972,10.37,1111122 
DISL,ioos:station:DISL:DISL:1,2010-02-01T12:30:00Z,30.2513,-88.0778,5.953,10.41,1111122 
DISL,ioos:station:DISL:DISL:1,2010-02-01T13:00:00Z,30.2513,-88.0778,5.97,10.43,1111122 
DISL,ioos:station:DISL:DISL:1,2010-02-01T13:30:00Z,30.2513,-88.0778,5.91,10.45,1111122 
DISL,ioos:station:DISL:DISL:1,2010-02-01T14:00:00Z,30.2513,-88.0778,5.875,10.47,1111122 
DISL,ioos:station:DISL:DISL:1,2010-02-01T14:30:00Z,30.2513,-88.0778,5.88,10.49,1111122 
DISL,ioos:station:DISL:DISL:1,2010-02-01T15:00:00Z,30.2513,-88.0778,5.866,10.5,1111122 
DISL,ioos:station:DISL:DISL:1,2010-02-01T15:30:00Z,30.2513,-88.0778,5.857,10.5,1111122 
DISL,ioos:station:DISL:DISL:1,2010-02-01T16:00:00Z,30.2513,-88.0778,5.872,10.48,1111122 
DISL,ioos:station:DISL:DISL:1,2010-02-01T16:30:00Z,30.2513,-88.0778,5.756,10.49,1111122 
DISL,ioos:station:DISL:DISL:1,2010-02-01T17:00:00Z,30.2513,-88.0778,5.746,10.5,1111122 
DISL,ioos:station:DISL:DISL:1,2010-02-01T17:30:00Z,30.2513,-88.0778,5.898,10.52,1111122 
DISL,ioos:station:DISL:DISL:1,2010-02-01T18:00:00Z,30.2513,-88.0778,5.831,10.51,1111122 
DISL,ioos:station:DISL:DISL:1,2010-02-01T18:30:00Z,30.2513,-88.0778,5.876,10.58,1111122 
DISL,ioos:station:DISL:DISL:1,2010-02-01T19:00:00Z,30.2513,-88.0778,5.867,10.67,1111122 
DISL,ioos:station:DISL:DISL:1,2010-02-01T19:30:00Z,30.2513,-88.0778,5.862,10.65,1111122 
DISL,ioos:station:DISL:DISL:1,2010-02-01T20:00:00Z,30.2513,-88.0778,5.966,10.67,1111122 
DISL,ioos:station:DISL:DISL:1,2010-02-01T20:30:00Z,30.2513,-88.0778,6.041,10.64,1111122 
DISL,ioos:station:DISL:DISL:1,2010-02-01T21:00:00Z,30.2513,-88.0778,6.015,10.6,1111122 
DISL,ioos:station:DISL:DISL:1,2010-02-01T21:30:00Z,30.2513,-88.0778,6.025,10.64,1111122 
DISL,ioos:station:DISL:DISL:1,2010-02-01T22:00:00Z,30.2513,-88.0778,6.038,10.63,1111122 
DISL,ioos:station:DISL:DISL:1,2010-02-01T22:30:00Z,30.2513,-88.0778,6.143,10.74,1111122 
DISL,ioos:station:DISL:DISL:1,2010-02-01T23:00:00Z,30.2513,-88.0778,6.218,10.78,1111122 
DISL,ioos:station:DISL:DISL:1,2010-02-01T23:30:00Z,30.2513,-88.0778,6.224,10.56,1111122 
DISL,ioos:station:DISL:DISL:1,2010-02-02T00:00:00Z,30.2513,-88.0778,6.182,11.06,1111122 
DISL,ioos:station:DISL:DISL:1,2010-02-02T00:30:00Z,30.2513,-88.0778,6.222,11.3,1111122 
DISL,ioos:station:DISL:DISL:1,2010-02-02T01:00:00Z,30.2513,-88.0778,6.333,10.84,1111122 
DISL,ioos:station:DISL:DISL:1,2010-02-02T01:30:00Z,30.2513,-88.0778,6.28,10.69,1111122 
DISL,ioos:station:DISL:DISL:1,2010-02-02T02:00:00Z,30.2513,-88.0778,6.337,10.62,1111122 
DISL,ioos:station:DISL:DISL:1,2010-02-02T02:30:00Z,30.2513,-88.0778,6.401,10.62,1111122 
DISL,ioos:station:DISL:DISL:1,2010-02-02T03:00:00Z,30.2513,-88.0778,6.435,10.53,1111122 
DISL,ioos:station:DISL:DISL:1,2010-02-02T03:30:00Z,30.2513,-88.0778,6.429,10.26,1111122 
DISL,ioos:station:DISL:DISL:1,2010-02-02T04:00:00Z,30.2513,-88.0778,6.389,10.35,1111122 
DISL,ioos:station:DISL:DISL:1,2010-02-02T04:30:00Z,30.2513,-88.0778,6.423,10.46,1111122 
DISL,ioos:station:DISL:DISL:1,2010-02-02T05:00:00Z,30.2513,-88.0778,6.478,10.39,1111122 
DISL,ioos:station:DISL:DISL:1,2010-02-02T05:30:00Z,30.2513,-88.0778,6.441,10.51,1111122 
DISL,ioos:station:DISL:DISL:1,2010-02-02T06:00:00Z,30.2513,-88.0778,6.354,10.42,1111122 
DISL,ioos:station:DISL:DISL:1,2010-02-02T06:30:00Z,30.2513,-88.0778,6.388,10.59,1111122 
DISL,ioos:station:DISL:DISL:1,2010-02-02T07:00:00Z,30.2513,-88.0778,6.394,10.54,1111122 
DISL,ioos:station:DISL:DISL:1,2010-02-02T07:30:00Z,30.2513,-88.0778,6.425,10.57,1111122 
DISL,ioos:station:DISL:DISL:1,2010-02-02T08:00:00Z,30.2513,-88.0778,6.404,10.57,1111122 
DISL,ioos:station:DISL:DISL:1,2010-02-02T08:30:00Z,30.2513,-88.0778,6.325,10.58,1111122 
DISL,ioos:station:DISL:DISL:1,2010-02-02T09:00:00Z,30.2513,-88.0778,6.362,10.58,1111122 
DISL,ioos:station:DISL:DISL:1,2010-02-02T09:30:00Z,30.2513,-88.0778,6.18,10.6,1111122 
DISL,ioos:station:DISL:DISL:1,2010-02-02T10:00:00Z,30.2513,-88.0778,6.059,10.61,1111122 
DISL,ioos:station:DISL:DISL:1,2010-02-02T10:30:00Z,30.2513,-88.0778,6.104,10.6,1111122 
DISL,ioos:station:DISL:DISL:1,2010-02-02T11:00:00Z,30.2513,-88.0778,6.047,10.59,1111122 
DISL,ioos:station:DISL:DISL:1,2010-02-02T11:30:00Z,30.2513,-88.0778,6.052,10.59,1111122 
DISL,ioos:station:DISL:DISL:1,2010-02-02T12:00:00Z,30.2513,-88.0778,5.939,10.62,1111122 
DISL,ioos:station:DISL:DISL:1,2010-02-02T12:30:00Z,30.2513,-88.0778,5.891,10.62,1111122 
DISL,ioos:station:DISL:DISL:1,2010-02-02T13:00:00Z,30.2513,-88.0778,5.912,10.66,1111122 
DISL,ioos:station:DISL:DISL:1,2010-02-02T13:30:00Z,30.2513,-88.0778,5.942,10.68,1111122 
DISL,ioos:station:DISL:DISL:1,2010-02-02T14:00:00Z,30.2513,-88.0778,5.872,10.69,1111122 
DISL,ioos:station:DISL:DISL:1,2010-02-02T14:30:00Z,30.2513,-88.0778,5.922,10.73,1111122 
DISL,ioos:station:DISL:DISL:1,2010-02-02T15:00:00Z,30.2513,-88.0778,5.903,10.75,1111122 
DISL,ioos:station:DISL:DISL:1,2010-02-02T15:30:00Z,30.2513,-88.0778,5.823,10.78,1111122 
DISL,ioos:station:DISL:DISL:1,2010-02-02T16:00:00Z,30.2513,-88.0778,5.892,10.8,1111122 
DISL,ioos:station:DISL:DISL:1,2010-02-02T16:30:00Z,30.2513,-88.0778,5.96,10.83,1111122 
DISL,ioos:station:DISL:DISL:1,2010-02-02T17:00:00Z,30.2513,-88.0778,5.932,10.84,1111122 
DISL,ioos:station:DISL:DISL:1,2010-02-02T17:30:00Z,30.2513,-88.0778,5.96,10.83,1111122 
DISL,ioos:station:DISL:DISL:1,2010-02-02T18:00:00Z,30.2513,-88.0778,5.924,10.79,1111122 
DISL,ioos:station:DISL:DISL:1,2010-02-02T18:30:00Z,30.2513,-88.0778,5.865,10.77,1111122 
DISL,ioos:station:DISL:DISL:1,2010-02-02T19:00:00Z,30.2513,-88.0778,5.925,10.67,1111122 
DISL,ioos:station:DISL:DISL:1,2010-02-02T19:30:00Z,30.2513,-88.0778,5.923,10.71,1111122 
DISL,ioos:station:DISL:DISL:1,2010-02-02T20:00:00Z,30.2513,-88.0778,6.004,10.7,1111122 
DISL,ioos:station:DISL:DISL:1,2010-02-02T20:30:00Z,30.2513,-88.0778,5.939,10.87,1111122 
DISL,ioos:station:DISL:DISL:1,2010-02-02T21:00:00Z,30.2513,-88.0778,5.949,10.85,1111122 
DISL,ioos:station:DISL:DISL:1,2010-02-02T21:30:00Z,30.2513,-88.0778,5.986,10.88,1111122 
DISL,ioos:station:DISL:DISL:1,2010-02-02T22:00:00Z,30.2513,-88.0778,5.946,10.93,1111122 
DISL,ioos:station:DISL:DISL:1,2010-02-02T22:30:00Z,30.2513,-88.0778,5.983,11.0,1111122 
DISL,ioos:station:DISL:DISL:1,2010-02-02T23:00:00Z,30.2513,-88.0778,6.007,11.1,1111122 
DISL,ioos:station:DISL:DISL:1,2010-02-02T23:30:00Z,30.2513,-88.0778,5.939,11.14,1111122 
DISL,ioos:station:DISL:DISL:1,2010-02-03T00:00:00Z,30.2513,-88.0778,6.024,11.19,1111122 
DISL,ioos:station:DISL:DISL:1,2010-02-03T00:30:00Z,30.2513,-88.0778,5.941,11.07,1111122 
DISL,ioos:station:DISL:DISL:1,2010-02-03T01:00:00Z,30.2513,-88.0778,5.95,11.03,1111122 
DISL,ioos:station:DISL:DISL:1,2010-02-03T01:30:00Z,30.2513,-88.0778,5.616,11.02,1111122 
DISL,ioos:station:DISL:DISL:1,2010-02-03T02:00:00Z,30.2513,-88.0778,5.94,10.99,1111122 
DISL,ioos:station:DISL:DISL:1,2010-02-03T02:30:00Z,30.2513,-88.0778,5.962,10.97,1111122 
DISL,ioos:station:DISL:DISL:1,2010-02-03T03:00:00Z,30.2513,-88.0778,5.942,10.95,1111122 
DISL,ioos:station:DISL:DISL:1,2010-02-03T03:30:00Z,30.2513,-88.0778,5.951,10.91,1111122 
DISL,ioos:station:DISL:DISL:1,2010-02-03T04:00:00Z,30.2513,-88.0778,5.954,10.91,1111122 
DISL,ioos:station:DISL:DISL:1,2010-02-03T04:30:00Z,30.2513,-88.0778,5.879,10.89,1111122 
DISL,ioos:station:DISL:DISL:1,2010-02-03T05:00:00Z,30.2513,-88.0778,5.897,10.91,1111122 
DISL,ioos:station:DISL:DISL:1,2010-02-03T05:30:00Z,30.2513,-88.0778,5.862,10.89,1111122 
DISL,ioos:station:DISL:DISL:1,2010-02-03T06:00:00Z,30.2513,-88.0778,5.908,10.92,1111122 
DISL,ioos:station:DISL:DISL:1,2010-02-03T06:30:00Z,30.2513,-88.0778,5.94,10.92,1111122 
DISL,ioos:station:DISL:DISL:1,2010-02-03T07:00:00Z,30.2513,-88.0778,5.907,10.92,1111122 
DISL,ioos:station:DISL:DISL:1,2010-02-03T07:30:00Z,30.2513,-88.0778,5.944,10.93,1111122 
DISL,ioos:station:DISL:DISL:1,2010-02-03T08:00:00Z,30.2513,-88.0778,5.866,10.91,1111122 
DISL,ioos:station:DISL:DISL:1,2010-02-03T08:30:00Z,30.2513,-88.0778,5.898,10.9,1111122 
DISL,ioos:station:DISL:DISL:1,2010-02-03T09:00:00Z,30.2513,-88.0778,5.855,10.9,1111122 
DISL,ioos:station:DISL:DISL:1,2010-02-03T09:30:00Z,30.2513,-88.0778,5.764,10.89,1111122 
DISL,ioos:station:DISL:DISL:1,2010-02-03T10:00:00Z,30.2513,-88.0778,5.91,10.9,1111122 
DISL,ioos:station:DISL:DISL:1,2010-02-03T10:30:00Z,30.2513,-88.0778,5.84,10.9,1111122 
DISL,ioos:station:DISL:DISL:1,2010-02-03T11:00:00Z,30.2513,-88.0778,5.894,10.9,1111122 
DISL,ioos:station:DISL:DISL:1,2010-02-03T11:30:00Z,30.2513,-88.0778,5.84,10.93,1111122 
DISL,ioos:station:DISL:DISL:1,2010-02-03T12:00:00Z,30.2513,-88.0778,5.826,10.92,1111122 
DISL,ioos:station:DISL:DISL:1,2010-02-03T12:30:00Z,30.2513,-88.0778,5.89,10.88,1111122 
DISL,ioos:station:DISL:DISL:1,2010-02-03T13:00:00Z,30.2513,-88.0778,5.859,10.88,1111122 
DISL,ioos:station:DISL:DISL:1,2010-02-03T13:30:00Z,30.2513,-88.0778,5.987,10.87,1111122 
DISL,ioos:station:DISL:DISL:1,2010-02-03T14:00:00Z,30.2513,-88.0778,6.049,10.84,1111122 
DISL,ioos:station:DISL:DISL:1,2010-02-03T14:30:00Z,30.2513,-88.0778,6.03,10.84,1111122 
DISL,ioos:station:DISL:DISL:1,2010-02-03T15:00:00Z,30.2513,-88.0778,6.155,10.84,1111122 
DISL,ioos:station:DISL:DISL:1,2010-02-03T15:30:00Z,30.2513,-88.0778,6.21,10.87,1111122 
DISL,ioos:station:DISL:DISL:1,2010-02-03T16:00:00Z,30.2513,-88.0778,6.199,10.85,1111122 
DISL,ioos:station:DISL:DISL:1,2010-02-03T16:30:00Z,30.2513,-88.0778,6.254,10.82,1111122 
DISL,ioos:station:DISL:DISL:1,2010-02-03T17:00:00Z,30.2513,-88.0778,6.219,10.82,1111122 
DISL,ioos:station:DISL:DISL:1,2010-02-03T17:30:00Z,30.2513,-88.0778,6.195,10.84,1111122 
DISL,ioos:station:DISL:DISL:1,2010-02-03T18:00:00Z,30.2513,-88.0778,6.243,10.78,1111122 
DISL,ioos:station:DISL:DISL:1,2010-02-03T18:30:00Z,30.2513,-88.0778,6.215,10.46,1111122 
DISL,ioos:station:DISL:DISL:1,2010-02-03T19:00:00Z,30.2513,-88.0778,6.303,10.56,1111122 
DISL,ioos:station:DISL:DISL:1,2010-02-03T19:30:00Z,30.2513,-88.0778,6.328,10.91,1111122 
DISL,ioos:station:DISL:DISL:1,2010-02-03T20:00:00Z,30.2513,-88.0778,6.334,10.8,1111122 
DISL,ioos:station:DISL:DISL:1,2010-02-03T20:30:00Z,30.2513,-88.0778,6.419,10.64,1111122 
DISL,ioos:station:DISL:DISL:1,2010-02-03T21:00:00Z,30.2513,-88.0778,6.471,11.18,1111122 
DISL,ioos:station:DISL:DISL:1,2010-02-03T21:30:00Z,30.2513,-88.0778,6.368,10.62,1111122 
DISL,ioos:station:DISL:DISL:1,2010-02-03T22:00:00Z,30.2513,-88.0778,6.235,10.6,1111122 
DISL,ioos:station:DISL:DISL:1,2010-02-03T22:30:00Z,30.2513,-88.0778,6.197,10.57,1111122 
DISL,ioos:station:DISL:DISL:1,2010-02-03T23:00:00Z,30.2513,-88.0778,6.1,10.7,1111122 
DISL,ioos:station:DISL:DISL:1,2010-02-03T23:30:00Z,30.2513,-88.0778,6.12,10.81,1111122 
DISL,ioos:station:DISL:DISL:1,2010-02-04T00:00:00Z,30.2513,-88.0778,6.005,11.06,1111122 
DISL,ioos:station:DISL:DISL:1,2010-02-04T00:30:00Z,30.2513,-88.0778,6.024,11.02,1111122 
DISL,ioos:station:DISL:DISL:1,2010-02-04T01:00:00Z,30.2513,-88.0778,6.021,10.97,1111122 
DISL,ioos:station:DISL:DISL:1,2010-02-04T01:30:00Z,30.2513,-88.0778,6.013,10.92,1111122 
DISL,ioos:station:DISL:DISL:1,2010-02-04T02:00:00Z,30.2513,-88.0778,5.89,10.93,1111122 
DISL,ioos:station:DISL:DISL:1,2010-02-04T02:30:00Z,30.2513,-88.0778,5.914,10.93,1111122 
DISL,ioos:station:DISL:DISL:1,2010-02-04T03:00:00Z,30.2513,-88.0778,5.907,10.9,1111122 
DISL,ioos:station:DISL:DISL:1,2010-02-04T03:30:00Z,30.2513,-88.0778,5.9,10.9,1111122 
DISL,ioos:station:DISL:DISL:1,2010-02-04T04:00:00Z,30.2513,-88.0778,5.783,10.88,1111122 
DISL,ioos:station:DISL:DISL:1,2010-02-04T04:30:00Z,30.2513,-88.0778,5.705,10.87,1111122 
DISL,ioos:station:DISL:DISL:1,2010-02-04T05:00:00Z,30.2513,-88.0778,5.556,10.87,1111122 
DISL,ioos:station:DISL:DISL:1,2010-02-04T05:30:00Z,30.2513,-88.0778,5.638,10.85,1111122 
DISL,ioos:station:DISL:DISL:1,2010-02-04T06:00:00Z,30.2513,-88.0778,5.589,10.82,1111122 
DISL,ioos:station:DISL:DISL:1,2010-02-04T06:30:00Z,30.2513,-88.0778,5.522,10.79,1111122 
DISL,ioos:station:DISL:DISL:1,2010-02-04T07:00:00Z,30.2513,-88.0778,5.465,10.78,1111122 
DISL,ioos:station:DISL:DISL:1,2010-02-04T07:30:00Z,30.2513,-88.0778,5.599,10.77,1111122 
DISL,ioos:station:DISL:DISL:1,2010-02-04T08:00:00Z,30.2513,-88.0778,5.598,10.74,1111122 
DISL,ioos:station:DISL:DISL:1,2010-02-04T08:30:00Z,30.2513,-88.0778,5.62,10.74,1111122 
DISL,ioos:station:DISL:DISL:1,2010-02-04T09:00:00Z,30.2513,-88.0778,5.663,10.74,1111122 
DISL,ioos:station:DISL:DISL:1,2010-02-04T09:30:00Z,30.2513,-88.0778,5.583,10.69,1111122 
DISL,ioos:station:DISL:DISL:1,2010-02-04T10:00:00Z,30.2513,-88.0778,5.504,10.61,1111122 
DISL,ioos:station:DISL:DISL:1,2010-02-04T10:30:00Z,30.2513,-88.0778,5.598,10.56,1111122 
DISL,ioos:station:DISL:DISL:1,2010-02-04T11:00:00Z,30.2513,-88.0778,5.643,10.47,1111122 
DISL,ioos:station:DISL:DISL:1,2010-02-04T11:30:00Z,30.2513,-88.0778,5.667,10.42,1111122 
DISL,ioos:station:DISL:DISL:1,2010-02-04T12:00:00Z,30.2513,-88.0778,5.724,10.43,1111122 
DISL,ioos:station:DISL:DISL:1,2010-02-04T12:30:00Z,30.2513,-88.0778,5.739,10.43,1111122 
DISL,ioos:station:DISL:DISL:1,2010-02-04T13:00:00Z,30.2513,-88.0778,5.811,10.46,1111122 
DISL,ioos:station:DISL:DISL:1,2010-02-04T13:30:00Z,30.2513,-88.0778,5.979,10.51,1111122 
DISL,ioos:station:DISL:DISL:1,2010-02-04T14:00:00Z,30.2513,-88.0778,6.018,10.45,1111122 
DISL,ioos:station:DISL:DISL:1,2010-02-04T14:30:00Z,30.2513,-88.0778,6.073,10.44,1111122 
DISL,ioos:station:DISL:DISL:1,2010-02-04T15:00:00Z,30.2513,-88.0778,6.241,10.45,1111122 
DISL,ioos:station:DISL:DISL:1,2010-02-04T15:30:00Z,30.2513,-88.0778,6.335,10.44,1111122 
DISL,ioos:station:DISL:DISL:1,2010-02-04T16:00:00Z,30.2513,-88.0778,6.357,9.5,1111122 
DISL,ioos:station:DISL:DISL:1,2010-02-04T16:30:00Z,30.2513,-88.0778,6.386,8.21,1111122 
DISL,ioos:station:DISL:DISL:1,2010-02-04T17:00:00Z,30.2513,-88.0778,6.466,9.26,1111122 
DISL,ioos:station:DISL:DISL:1,2010-02-04T17:30:00Z,30.2513,-88.0778,6.459,7.1,1111122 
DISL,ioos:station:DISL:DISL:1,2010-02-04T18:00:00Z,30.2513,-88.0778,6.566,6.76,1111122 
DISL,ioos:station:DISL:DISL:1,2010-02-04T18:30:00Z,30.2513,-88.0778,6.657,7.72,1111122 
DISL,ioos:station:DISL:DISL:1,2010-02-04T19:00:00Z,30.2513,-88.0778,6.798,7.48,1111122 
DISL,ioos:station:DISL:DISL:1,2010-02-04T19:30:00Z,30.2513,-88.0778,6.645,6.38,1111122 
DISL,ioos:station:DISL:DISL:1,2010-02-04T20:00:00Z,30.2513,-88.0778,6.786,6.95,1111122 
DISL,ioos:station:DISL:DISL:1,2010-02-04T20:30:00Z,30.2513,-88.0778,6.743,10.29,1111122 
DISL,ioos:station:DISL:DISL:1,2010-02-04T21:00:00Z,30.2513,-88.0778,6.752,10.5,1111122 
DISL,ioos:station:DISL:DISL:1,2010-02-04T21:30:00Z,30.2513,-88.0778,6.721,10.47,1111122 
DISL,ioos:station:DISL:DISL:1,2010-02-04T22:00:00Z,30.2513,-88.0778,6.783,10.45,1111122 
DISL,ioos:station:DISL:DISL:1,2010-02-04T22:30:00Z,30.2513,-88.0778,6.706,10.44,1111122 
DISL,ioos:station:DISL:DISL:1,2010-02-04T23:00:00Z,30.2513,-88.0778,6.787,9.7,1111122 
DISL,ioos:station:DISL:DISL:1,2010-02-04T23:30:00Z,30.2513,-88.0778,6.704,8.71,1111122 
DISL,ioos:station:DISL:DISL:1,2010-02-05T00:00:00Z,30.2513,-88.0778,6.588,9.24,1111122 
DISL,ioos:station:DISL:DISL:1,2010-02-05T00:30:00Z,30.2513,-88.0778,6.648,8.86,1111122 
DISL,ioos:station:DISL:DISL:1,2010-02-05T01:00:00Z,30.2513,-88.0778,6.649,8.54,1111122 
DISL,ioos:station:DISL:DISL:1,2010-02-05T01:30:00Z,30.2513,-88.0778,6.582,8.82,1111122 
DISL,ioos:station:DISL:DISL:1,2010-02-05T02:00:00Z,30.2513,-88.0778,6.513,9.15,1111122 
DISL,ioos:station:DISL:DISL:1,2010-02-05T02:30:00Z,30.2513,-88.0778,6.493,9.2,1111122 
DISL,ioos:station:DISL:DISL:1,2010-02-05T03:00:00Z,30.2513,-88.0778,6.525,9.07,1111122 
DISL,ioos:station:DISL:DISL:1,2010-02-05T03:30:00Z,30.2513,-88.0778,6.624,8.79,1111122 
DISL,ioos:station:DISL:DISL:1,2010-02-05T04:00:00Z,30.2513,-88.0778,6.621,8.87,1111122 
DISL,ioos:station:DISL:DISL:1,2010-02-05T04:30:00Z,30.2513,-88.0778,6.585,8.96,1111122 
DISL,ioos:station:DISL:DISL:1,2010-02-05T05:00:00Z,30.2513,-88.0778,6.426,9.25,1111122 
DISL,ioos:station:DISL:DISL:1,2010-02-05T05:30:00Z,30.2513,-88.0778,6.574,9.08,1111122 
DISL,ioos:station:DISL:DISL:1,2010-02-05T06:00:00Z,30.2513,-88.0778,6.484,9.33,1111122 
DISL,ioos:station:DISL:DISL:1,2010-02-05T06:30:00Z,30.2513,-88.0778,6.532,9.4,1111122 
DISL,ioos:station:DISL:DISL:1,2010-02-05T07:00:00Z,30.2513,-88.0778,6.726,9.49,1111122 
DISL,ioos:station:DISL:DISL:1,2010-02-05T07:30:00Z,30.2513,-88.0778,6.622,9.44,1111122 
DISL,ioos:station:DISL:DISL:1,2010-02-05T08:00:00Z,30.2513,-88.0778,6.56,9.45,1111122 
DISL,ioos:station:DISL:DISL:1,2010-02-05T08:30:00Z,30.2513,-88.0778,6.317,9.55,1111122 
DISL,ioos:station:DISL:DISL:1,2010-02-05T09:00:00Z,30.2513,-88.0778,6.248,9.62,1111122 
DISL,ioos:station:DISL:DISL:1,2010-02-05T09:30:00Z,30.2513,-88.0778,6.264,9.61,1111122 
DISL,ioos:station:DISL:DISL:1,2010-02-05T10:00:00Z,30.2513,-88.0778,6.361,9.64,1111122 
DISL,ioos:station:DISL:DISL:1,2010-02-05T10:30:00Z,30.2513,-88.0778,6.321,9.79,1111122 
DISL,ioos:station:DISL:DISL:1,2010-02-05T11:00:00Z,30.2513,-88.0778,6.277,9.83,1111122 
DISL,ioos:station:DISL:DISL:1,2010-02-05T11:30:00Z,30.2513,-88.0778,6.132,9.81,1111122 
DISL,ioos:station:DISL:DISL:1,2010-02-05T12:00:00Z,30.2513,-88.0778,6.308,9.75,1111122 
DISL,ioos:station:DISL:DISL:1,2010-02-05T12:30:00Z,30.2513,-88.0778,6.078,9.61,1111122 
DISL,ioos:station:DISL:DISL:1,2010-02-05T13:00:00Z,30.2513,-88.0778,6.173,9.74,1111122 
DISL,ioos:station:DISL:DISL:1,2010-02-05T13:30:00Z,30.2513,-88.0778,6.299,9.71,1111122 
DISL,ioos:station:DISL:DISL:1,2010-02-05T14:00:00Z,30.2513,-88.0778,6.436,10.14,1111122 
DISL,ioos:station:DISL:DISL:1,2010-02-05T14:30:00Z,30.2513,-88.0778,6.399,9.7,1111122 
DISL,ioos:station:DISL:DISL:1,2010-02-05T15:00:00Z,30.2513,-88.0778,6.477,9.63,1111122 
DISL,ioos:station:DISL:DISL:1,2010-02-05T15:30:00Z,30.2513,-88.0778,6.415,9.66,1111122 
DISL,ioos:station:DISL:DISL:1,2010-02-05T16:00:00Z,30.2513,-88.0778,6.627,9.61,1111122 
DISL,ioos:station:DISL:DISL:1,2010-02-05T16:30:00Z,30.2513,-88.0778,6.72,9.47,1111122 
DISL,ioos:station:DISL:DISL:1,2010-02-05T17:00:00Z,30.2513,-88.0778,6.737,9.53,1111122 
DISL,ioos:station:DISL:DISL:1,2010-02-05T17:30:00Z,30.2513,-88.0778,6.767,9.43,1111122 
DISL,ioos:station:DISL:DISL:1,2010-02-05T18:00:00Z,30.2513,-88.0778,6.741,9.46,1111122 
DISL,ioos:station:DISL:DISL:1,2010-02-05T18:30:00Z,30.2513,-88.0778,6.744,9.55,1111122 
DISL,ioos:station:DISL:DISL:1,2010-02-05T19:00:00Z,30.2513,-88.0778,6.846,9.66,1111122 
DISL,ioos:station:DISL:DISL:1,2010-02-05T19:30:00Z,30.2513,-88.0778,6.895,9.73,1111122 
DISL,ioos:station:DISL:DISL:1,2010-02-05T20:00:00Z,30.2513,-88.0778,7.01,9.8,1111122 
DISL,ioos:station:DISL:DISL:1,2010-02-05T20:30:00Z,30.2513,-88.0778,7.05,9.82,1111122 
DISL,ioos:station:DISL:DISL:1,2010-02-05T21:00:00Z,30.2513,-88.0778,6.904,9.87,1111122 
DISL,ioos:station:DISL:DISL:1,2010-02-05T21:30:00Z,30.2513,-88.0778,6.808,9.99,1111122 
DISL,ioos:station:DISL:DISL:1,2010-02-05T22:00:00Z,30.2513,-88.0778,6.845,10.04,1111122 
DISL,ioos:station:DISL:DISL:1,2010-02-05T22:30:00Z,30.2513,-88.0778,6.856,10.13,1111122 
DISL,ioos:station:DISL:DISL:1,2010-02-05T23:00:00Z,30.2513,-88.0778,6.763,10.14,1111122 
DISL,ioos:station:DISL:DISL:1,2010-02-05T23:30:00Z,30.2513,-88.0778,6.787,10.03,1111122 
DISL,ioos:station:DISL:DISL:1,2010-02-06T00:00:00Z,30.2513,-88.0778,6.71,9.99,1111122 
DISL,ioos:station:DISL:DISL:1,2010-02-06T00:30:00Z,30.2513,-88.0778,6.663,9.95,1111122 
DISL,ioos:station:DISL:DISL:1,2010-02-06T01:00:00Z,30.2513,-88.0778,6.236,9.85,1111122 
DISL,ioos:station:DISL:DISL:1,2010-02-06T01:30:00Z,30.2513,-88.0778,6.461,9.88,1111122 
DISL,ioos:station:DISL:DISL:1,2010-02-06T02:00:00Z,30.2513,-88.0778,6.388,9.81,1111122 
DISL,ioos:station:DISL:DISL:1,2010-02-06T02:30:00Z,30.2513,-88.0778,6.305,9.76,1111122 
DISL,ioos:station:DISL:DISL:1,2010-02-06T03:00:00Z,30.2513,-88.0778,6.173,9.73,1111122 
DISL,ioos:station:DISL:DISL:1,2010-02-06T03:30:00Z,30.2513,-88.0778,5.994,9.71,1111122 
DISL,ioos:station:DISL:DISL:1,2010-02-06T04:00:00Z,30.2513,-88.0778,5.962,9.73,1111122 
DISL,ioos:station:DISL:DISL:1,2010-02-06T04:30:00Z,30.2513,-88.0778,5.945,9.75,1111122 
DISL,ioos:station:DISL:DISL:1,2010-02-06T05:00:00Z,30.2513,-88.0778,5.822,9.74,1111122 
DISL,ioos:station:DISL:DISL:1,2010-02-06T05:30:00Z,30.2513,-88.0778,5.805,9.73,1111122 
DISL,ioos:station:DISL:DISL:1,2010-02-06T06:00:00Z,30.2513,-88.0778,5.695,9.7,1111122 
DISL,ioos:station:DISL:DISL:1,2010-02-06T06:30:00Z,30.2513,-88.0778,5.633,9.68,1111122 
DISL,ioos:station:DISL:DISL:1,2010-02-06T07:00:00Z,30.2513,-88.0778,5.501,9.7,1111122 
DISL,ioos:station:DISL:DISL:1,2010-02-06T07:30:00Z,30.2513,-88.0778,5.388,9.65,1111122 
DISL,ioos:station:DISL:DISL:1,2010-02-06T08:00:00Z,30.2513,-88.0778,5.381,9.67,1111122 
DISL,ioos:station:DISL:DISL:1,2010-02-06T08:30:00Z,30.2513,-88.0778,5.376,9.66,1111122 
DISL,ioos:station:DISL:DISL:1,2010-02-06T09:00:00Z,30.2513,-88.0778,5.203,9.74,1111122 
DISL,ioos:station:DISL:DISL:1,2010-02-06T09:30:00Z,30.2513,-88.0778,5.113,9.86,1111122 
DISL,ioos:station:DISL:DISL:1,2010-02-06T10:00:00Z,30.2513,-88.0778,5.083,9.88,1111122 
DISL,ioos:station:DISL:DISL:1,2010-02-06T10:30:00Z,30.2513,-88.0778,5.067,9.88,1111122 
DISL,ioos:station:DISL:DISL:1,2010-02-06T11:00:00Z,30.2513,-88.0778,5.129,9.89,1111122 
DISL,ioos:station:DISL:DISL:1,2010-02-06T11:30:00Z,30.2513,-88.0778,5.136,9.78,1111122 
DISL,ioos:station:DISL:DISL:1,2010-02-06T12:00:00Z,30.2513,-88.0778,5.141,9.71,1111122 
DISL,ioos:station:DISL:DISL:1,2010-02-06T12:30:00Z,30.2513,-88.0778,5.254,9.59,1111122 
DISL,ioos:station:DISL:DISL:1,2010-02-06T13:00:00Z,30.2513,-88.0778,5.313,9.59,1111122 
DISL,ioos:station:DISL:DISL:1,2010-02-06T13:30:00Z,30.2513,-88.0778,5.359,9.65,1111122 
DISL,ioos:station:DISL:DISL:1,2010-02-06T14:00:00Z,30.2513,-88.0778,5.426,9.68,1111122 
DISL,ioos:station:DISL:DISL:1,2010-02-06T14:30:00Z,30.2513,-88.0778,5.488,9.7,1111122 